Weather in Voshod

Russia / Republic of Crimea     44°30′48″N   34°13′03″E
temp.,
°C
wind,
m/s
gust,
m/s
humid.,
%
clouds,
%
prec.,
mm/h
press.,
hPa
HPBL,
m
1 march, mon
mon100:00+4nnw347430 0.1 1025407
03:00+3nw447558 0.1 1024221
06:00+3nw227099 0.0 1025172
09:00+4nne226691 0.0 1025363
12:00+4ese327197 0.1 1026545
15:00+4se338598 0.6 1026407
18:00+3ese2289100 1.6 1027337
21:00+3ene3396100 3.2 1029258
2 march, tue
tue200:00+2nne238693 0.6 1030328
03:00+2nnw127486 0.7 1030230
06:00+2nne127055 0.0 1030474
09:00+2ssw026731 0.0 1031564
12:00+4ssw336617 0.0 1031776
15:00+5sw667016 0.0 1030687
18:00+4nw34690 0.0 1028361
21:00+2wnw44718 0.0 1027175
3 march, wed
wed300:00+2nw557465 0.0 1026225
03:00+4wnw557653 0.0 1024310
06:00+5w457979 0.0 1022448
09:00+5nnw237690 0.1 1023313
12:00+5nnw337278 0.1 1024446
15:00+6nnw335953 0.2 1025753
18:00+5nnw23600 0.0 1026491
21:00+4nw43650 0.0 1029146
4 march, thu
thu400:00+4wnw346518 0.0 1029476
03:00+4w346619 0.1 1028666
06:00+3w23627 0.0 1028483
09:00+5sw33643 0.0 1027752
12:00+5ssw557259 0.1 1026959
15:00+5sw677666 0.1 1024919
18:00+5sw677523 0.0 1022728
21:00+4sw677915 0.0 1022752
5 march, fri
fri500:00+5sw677736 0.0 1021786
03:00+4sw677835 0.0 1020647
06:00+4sw567918 0.0 1019458
09:00+5sw567610 0.0 1019437
12:00+7sw56730 0.0 1018431
15:00+7sw67760 0.0 1017378
18:00+6sw568012 0.0 1016418
21:00+6wsw588418 0.0 1016413